Tracking 29892 objects as of 21-Nov-2024
HD Live streaming from Space Station
objects crossing your sky now

STARLINK-30912

Track STARLINK-30912 now!
10-day predictions
STARLINK-30912 is classified as:


NORAD ID: 58422
Int'l Code: 2023-180W
Perigee: 494.4 km
Apogee: 496.0 km
Inclination: 43.0 °
Period: 94.4 minutes
Semi major axis: 6866 km
RCS: Unknown
Launch date: November 22, 2023
Source: United States (US)
Launch site: AIR FORCE EASTERN TEST RANGE (AFETR)
Your satellite tracking list
Your tracking list is empty




NASA's NSSDC Master Catalog

Two Line Element Set (TLE):
1 58422U 23180W   24325.66677408 -.00002379  00000-0 -81135-4 0  9990
2 58422  42.9994  65.4667 0001147 292.8301  67.2429 15.25903618 56823
Source of the keplerian elements: AFSPC